Regional Weather Roundup
Issued by NWS Sterling, VA

Home | Current Version | Previous Version | Graphics & Text | Print | Product List | Glossary On
Versions: 1 2 3 4 5 6 7 8 9 10 11 12 13 14 15 16 17 18 19 20 21 22 23 24 25 26 27 28 29 30 31 32 33 34 35 36 37 38 39 40 41 42 43 44 45 46 47 48 49 50
000
ASUS41 KLWX 271910
RWRLWX

REGIONAL WEATHER ROUNDUP
NATIONAL WEATHER SERVICE BALTIMORE MD/WASHINGTON DC
300 PM EDT FRI MAR 27 2015

Note: "FAIR" indicates few or no clouds below 12,000 feet
with no significant weather and/or obstructions to visibility.
 TC=TEMPERATURE CELSIUS

 * =Non NWS site. Station does not report precipitation (e.g. rain,
    snow, etc.), thunder, or fog.

DCZ001-MDZ009-015-VAZ040>042-051-053>054-272000-
WASHINGTON METRO

CITY           SKY/WX    TMP DP  RH WIND       PRES   REMARKS
WASHINGTON NAT CLOUDY    48  31  51 N9        29.80F
DULLES         CLOUDY    45  28  51 N8        29.79F
ANDREWS AFB    FAIR      45  33  64 N9        29.78S
FT BELVOIR     FAIR      47  31  53 N8        29.79F
QUANTICO       CLOUDY    47  32  56 NE12      29.79F
COLLEGE PARK*  CLOUDY    46  30  53 N6        29.79S
LEESBURG*      PTSUNNY   46  32  57 NW7G16    29.79F
MANASSAS*      CLOUDY    46  32  57 N6        29.80F
GAITHERSBURG*  PTSUNNY   46  28  49 NW8       29.82F

$$

MDZ006>007-011-014-272000-
BALTIMORE METRO

CITY           SKY/WX    TMP DP  RH WIND       PRES   REMARKS
BWI AIRPORT    CLOUDY    46  29  51 NW6       29.77S
MD SCIENCE CTR   N/A     47  28  47 MISG      29.78F
MARTIN STATE   PTSUNNY   46  36  66 NW5       29.80F
ANNAPOLIS      PTSUNNY   44  37  76 CALM      29.78F

$$

MDZ012-015-019>023-272000-
MARYLAND EASTERN SHORE

CITY           SKY/WX    TMP DP  RH WIND       PRES   REMARKS
OCEAN CITY     LGT RAIN  39  37  92 N10G17    29.78F
SALISBURY      LGT RAIN  39  37  92 NW10      29.78R
BAY BRIDGE AP*   N/A     43  36  75 CALM      29.79S
CAMBRIDGE*     FAIR      41  36  81 CALM      29.79S
EASTON*        LGT RAIN  41  39  93 CALM      29.83S

$$

MDZ017>025-272000-
SOUTHERN MARYLAND

CITY           SKY/WX    TMP DP  RH WIND       PRES   REMARKS
PATUXENT RIVER LGT RAIN  39  34  82 N9        29.80F
ST INIGOES     LGT RAIN  39  34  82 N5        29.79F
LEONARDTOWN*   CLOUDY    37  34  87 NE3       29.81F

$$

MDZ003>005-272000-
NORTH CENTRAL MARYLAND

CITY           SKY/WX    TMP DP  RH WIND       PRES   REMARKS
FREDERICK*     PTSUNNY   50  21  32 NW8         N/A
HAGERSTOWN APT PTSUNNY   48  24  39 NW13G22   29.77F
WESTMINSTER*   FAIR      45  27  49 N8        29.76S

$$

MDZ501>502-272000-
WESTERN MARYLAND

CITY           SKY/WX    TMP DP  RH WIND       PRES   REMARKS
OAKLAND*       CLOUDY    32  32 100 W8        29.74F WCI  25
CUMBERLAND*    PTSUNNY   45  27  49 N9        29.83F

$$

VAZ025>031-272000-
SHENANDOAH VALLEY

CITY           SKY/WX    TMP DP  RH WIND       PRES   REMARKS
WINCHESTER*    CLOUDY    46  25  42 N7G16     29.77F
FRONT ROYAL*   MOCLDY    46  32  57 NW7       29.76F
LURAY*         CLOUDY    50  32  50 N7        29.75F
NEW MARKET*    MOCLDY    46  27  47 N7        29.74F
STAUNTON*      CLOUDY    46  30  53 E3        29.76F
WAYNESBORO*    CLOUDY    44  34  68 NE7       29.75F

$$

WVZ021-048>050-054>055-272000-
EASTERN WEST VIRGINIA PANHANDLE

CITY           SKY/WX    TMP DP  RH WIND       PRES   REMARKS
MARTINSBURG    CLOUDY    48  26  42 W8        29.78F
PETERSBURG*    CLOUDY    44  23  45 W12       29.79F

$$

VAZ036>039-050-272000-
CENTRAL FOOTHILLS

CITY           SKY/WX    TMP DP  RH WIND       PRES   REMARKS
CHARLOTTESVILL PTSUNNY   47  38  71 CALM      29.77F
CULPEPER*      FAIR      48  34  57 N7        29.78F
ORANGE*        PTSUNNY   46  36  66 N6        29.79F
GORDONSVILLE*  CLOUDY    45  35  67 E5        29.77F
WARRENTON*     CLOUDY    48  38  67 N8        29.77F

$$

VAZ055>057-272000-
NORTH AND CENTRAL PIEDMONT

CITY           SKY/WX    TMP DP  RH WIND       PRES   REMARKS
FREDERICKSBRG* FAIR      46  38  74 CALM      29.78F
STAFFORD*      CLOUDY    46  32  59 N3        29.83F

$$

NCZ024-NYZ072-PAZ021-071-VAZ022-071-272000-
OTHER REGIONAL OBSERVATIONS

CITY           SKY/WX    TMP DP  RH WIND       PRES   REMARKS
NEW YORK CITY  CLOUDY    44  32  62 VRB6      29.75S
PHILADELPHIA   CLOUDY    46  30  53 N12G20    29.75F
PITTSBURGH     FLURRIES  33  24  69 N10       29.86F WCI  25
ROANOKE        PTSUNNY   46  30  53 N10       29.78F
RICHMOND       LGT RAIN  42  37  82 N12       29.79F
RALEIGH        CLOUDY    46  41  82 NE14      29.76S

$$

ANZ530>537-272000-
MARINE OBSERVATIONS

STATION/POSITION TIME  TEMP    WIND        PRES
                       AIR SEA DIR/SP/G
                 (UTC) (F)     (DEG/KT/KT) (MB)
THOMAS PT LIGHT  1900                        N/A
BALT KEY BRIDGE  1800   44     350/  9/ 10 1008.5R
COVE POINT       1800   38      30/ 12/ 14 1009.2R
LEWISETTA        1800   40 47              1009.3F
SOLOMONS ISLAND  1800      44                N/A
PINEY POINT      1800           10/  8/  8   N/A

$$



USA.gov is the U.S. government's official web portal to all federal, state and local government web resources and services.